Weather History for Key West, FL

Change the Weather History Date:

Monday, July 2, 2012

  Actual Average Record
Temperature  
Mean Temperature 84 °F 84 °F  
Max Temperature 88 °F 89 °F 96 °F (1881)
Min Temperature 80 °F 80 °F 69 °F (1888)
Degree Days  
Heating Degree Days 0 0  
Month to date heating degree days 0 0  
Since 1 June heating degree days 0 0  
Since 1 July heating degree days 0 0  
Cooling Degree Days 19 19  
Month to date cooling degree days 38 38  
Year to date cooling degree days 2239 2017  
Since 1 June cooling degree days 549 587  
Growing Degree Days 34 (Base 50)    
Moisture  
Dew Point 74 °F    
Average Humidity 69    
Maximum Humidity 79    
Minimum Humidity 59    
Precipitation  
Precipitation 0.00 in 0.13 in 4.12 in (1935)
Month to date precipitation T 0.25  
Year to date precipitation 25.63 14.99  
Snow  
Snow 0.00 in - - ()
Month to date snowfall 0.0  
Since 1 June snowfall 0.0  
Since 1 July snowfall 0.0  
Snow Depth 0.00 in    
Sea Level Pressure  
Sea Level Pressure 30.06 in    
Wind  
Wind Speed 8 mph (ESE)    
Max Wind Speed 16 mph    
Max Gust Speed 23 mph    
Visibility 10 miles    
Events      
T = Trace of Precipitation, MM = Missing Value Source: NWS Daily Summary

Daily Weather History Graph

Daily Weather History Graph

Search for Another Location

Airport:

Trip Planner

Search our weather history database for the weather conditions in past years. The results will help you decide how hot, cold, wet, or windy it might be!

Date:

Astronomy

Jul. 02, 2012 Rise Set
Actual Time 6:42 AM EDT 8:19 PM EDT
Civil Twilight 6:16 AM EDT 8:45 PM EDT
Nautical Twilight 5:46 AM EDT 9:16 PM EDT
Astronomical Twilight 5:14 AM EDT 9:48 PM EDT
Moon 7:24 PM EDT (7/2) 5:25 AM EDT (7/2)
Length of Visible Light 14h 28m
Length of Day
13h 37m
Waxing Gibbous, 98% of the Moon is Illuminated
Jul 2
Waxing Gibbous
Jul 3
Full
Jul 10
Last Quarter
Jul 19
New
Jul 26
First Quarter

Hourly Weather History & Observations

Time (EDT) Temp. Heat Index Dew Point Humidity Pressure Visibility Wind Dir Wind Speed Gust Speed Precip Events Conditions
12:53 AM 82.0 °F 87.9 °F 73.9 °F 76% 30.07 in 10.0 mi ESE 6.9 mph - N/A   Partly Cloudy
1:53 AM 82.0 °F 87.9 °F 73.9 °F 76% 30.07 in 10.0 mi ESE 6.9 mph - N/A   Partly Cloudy
2:53 AM 82.0 °F 87.4 °F 73.0 °F 74% 30.06 in 10.0 mi East 5.8 mph - N/A   Partly Cloudy
3:53 AM 81.0 °F 86.2 °F 73.9 °F 79% 30.06 in 10.0 mi East 3.5 mph - N/A   Partly Cloudy
4:53 AM 81.0 °F 85.8 °F 73.0 °F 77% 30.05 in 10.0 mi East 3.5 mph - N/A   Clear
5:53 AM 81.0 °F 85.2 °F 72.0 °F 74% 30.04 in 10.0 mi ESE 5.8 mph - N/A   Partly Cloudy
6:53 AM 81.0 °F 85.8 °F 73.0 °F 77% 30.06 in 10.0 mi Calm Calm - N/A   Clear
7:53 AM 82.0 °F 87.9 °F 73.9 °F 76% 30.07 in 10.0 mi East 3.5 mph - N/A   Clear
8:53 AM 84.0 °F 91.9 °F 75.0 °F 74% 30.10 in 10.0 mi East 6.9 mph - N/A   Partly Cloudy
9:53 AM 84.9 °F 91.4 °F 73.0 °F 67% 30.12 in 10.0 mi East 11.5 mph - N/A   Partly Cloudy
10:53 AM 84.9 °F 93.3 °F 75.0 °F 72% 30.12 in 10.0 mi ESE 10.4 mph - N/A   Mostly Cloudy
11:22 AM 84.2 °F 92.3 °F 75.2 °F 74% 30.11 in 10.0 mi East 8.1 mph - N/A   Mostly Cloudy
11:53 AM 84.0 °F 91.2 °F 73.9 °F 72% 30.10 in 10.0 mi ESE 9.2 mph - N/A   Overcast
12:53 PM 87.1 °F 97.3 °F 75.9 °F 69% 30.10 in 10.0 mi ESE 11.5 mph - N/A   Scattered Clouds
1:53 PM 87.1 °F 96.3 °F 75.0 °F 67% 30.08 in 10.0 mi ESE 15.0 mph - N/A   Clear
2:53 PM 88.0 °F 94.7 °F 72.0 °F 59% 30.06 in 10.0 mi ESE 10.4 mph - N/A   Clear
3:53 PM 87.1 °F 97.3 °F 75.9 °F 69% 30.04 in 10.0 mi ESE 12.7 mph - N/A   Clear
4:53 PM 86.0 °F 96.0 °F 75.9 °F 72% 30.03 in 10.0 mi ESE 12.7 mph - N/A   Clear
5:53 PM 86.0 °F 95.1 °F 75.0 °F 70% 30.02 in 10.0 mi ESE 12.7 mph - N/A   Clear
6:53 PM 84.2 °F 90.9 °F 73.4 °F 70% 30.03 in 10.0 mi ESE 11.5 mph - N/A   Clear
7:53 PM 82.9 °F 88.8 °F 73.0 °F 72% 30.03 in 10.0 mi ESE 11.5 mph - N/A   Clear
8:53 PM 82.9 °F 88.0 °F 72.0 °F 69% 30.03 in 10.0 mi ESE 10.4 mph - N/A   Clear
9:53 PM 82.0 °F 87.4 °F 73.0 °F 74% 30.05 in 10.0 mi East 8.1 mph - N/A   Clear
10:53 PM 82.0 °F 87.4 °F 73.0 °F 74% 30.06 in 10.0 mi ENE 5.8 mph - N/A   Clear
11:53 PM 81.0 °F 85.8 °F 73.0 °F 77% 30.07 in 10.0 mi East 3.5 mph - N/A   Clear